Preview of NWS' New Version of Forecast
This preview is not operational and should not be used for support decisions.

Regional Weather Roundup (RWR)

Issued by National Weather Service (NWS)

                            
000
ASUS43 KDTX 200010
RWRMI 
MICHIGAN HOURLY REGIONAL WEATHER ROUNDUP
NATIONAL WEATHER SERVICE DETROIT/PONTIAC MI
800 PM EDT SUN MAY 19 2019

NOTE: "FAIR" INDICATES FEW OR NO CLOUDS BELOW 12,000 FEET WITH NO
SIGNIFICANT WEATHER AND/OR OBSTRUCTION TO VISIBILITY.

MIZ047>049-052>055-059>063-066>070-074>076-081>083-200100-
SOUTHEAST LOWER MICHIGAN
  
CITY           SKY/WX    TMP DP  RH WIND       PRES   REMARKS
ADRIAN         FAIR      65  58  78 S20       29.69F                  
6HR MIN TEMP:  64; 6HR MAX TEMP:  69; 6HR PCP:  0.22;                

ALMA           FAIR      65  60  83 S14       29.60S                  
6HR MIN TEMP:  64; 6HR MAX TEMP:  72;                                

ANN ARBOR      CLOUDY    63  58  83 S9        29.70S                  
BAD AXE        MOCLDY    64  57  80 S18       29.62R                  
6HR MIN TEMP:  63; 6HR MAX TEMP:  72;                                

CARO           LGT RAIN  64  58  79 S14G21    29.63R                  
DETROIT CITY   MOCLDY    63  57  81 S12G22    29.71R                  
6HR MIN TEMP:  62; 6HR MAX TEMP:  78; 6HR PCP:  0.64;                

DETROIT        MOCLDY    63  56  78 S15G23    29.72R                  
6HR MIN TEMP:  63; 6HR MAX TEMP:  80; 6HR PCP:  0.34;                

FLINT          LGT RAIN  67  58  72 S12G21    29.65R                  
6HR MIN TEMP:  64; 6HR MAX TEMP:  76; 6HR PCP:  0.15;                

GROSSE ILE     FAIR      57  55  94 S9        29.73R                  
6HR MIN TEMP:  57; 6HR MAX TEMP:  72; 6HR PCP:  0.29;                

HILLSDALE      FAIR      65  60  83 S14G23    29.67F                  
6HR MIN TEMP:  64; 6HR MAX TEMP:  66; 6HR PCP:  0.01;                

HOWELL         CLOUDY    65  57  73 S14       29.67S                  
6HR MIN TEMP:  64; 6HR MAX TEMP:  72; 6HR PCP:  0.04;                


CITY           SKY/WX    TMP DP  RH WIND       PRES   REMARKS
JACKSON        MOCLDY    66  60  81 SE18G28   29.65F                  
6HR MIN TEMP:  65; 6HR MAX TEMP:  70; 6HR PCP:  0.04;                

LAMBERTVILLE   FAIR      64  60  87 S9        29.72F                  
LANSING        LGT RAIN  64  60  87 S12       29.64S                  
6HR MIN TEMP:  64; 6HR MAX TEMP:  72; 6HR PCP:  0.12;                

LAPEER         MOCLDY    64  59  83 S12G21    29.67R                  
6HR MIN TEMP:  63; 6HR MAX TEMP:  72; 6HR PCP:  0.11;                

MASON          LGT RAIN  64  61  90 SE7       29.66F                  
6HR MIN TEMP:  64; 6HR MAX TEMP:  71;                                

MONROE         FAIR      64  63  96 S9        29.71F                  
6HR MIN TEMP:  64; 6HR MAX TEMP:  77; 6HR PCP:  0.47;                

MT. CLEMENS    PTCLDY    60  60 100 S13       29.69R                  
6HR MIN TEMP:  60; 6HR MAX TEMP:  79; 6HR PCP:  0.37;                

PONTIAC        MOCLDY    64  60  87 S12G20    29.68R                  
6HR MIN TEMP:  62; 6HR MAX TEMP:  69; 6HR PCP:  0.35;                

PORT HOPE        N/A     64  56  75 S7        29.60R                  
6HR MIN TEMP:  49; 6HR MAX TEMP:  66; 6HR PCP:  0.16;                

PORT HURON     FAIR      63  57  82 S12       29.70S                  
TRI CITIES     MOCLDY    63  59  87 S15G29    29.59S                  
6HR MIN TEMP:  58; 6HR MAX TEMP:  68; 6HR PCP:  0.14;                

MIDLAND        FAIR      66  62  85 S10G16    29.57F                  
6HR MIN TEMP:  57; 6HR MAX TEMP:  68; 6HR PCP:  0.27;                

TROY           MOCLDY    63  58  83 S10       29.72R                  
SAGINAW HB     RAIN      64  59  82 S20G29    29.61S                  
$$
MIZ043>046-050>051-056>058-064>065-071>073-077>080-200100-
SOUTHWEST LOWER MICHIGAN
  
CITY           SKY/WX    TMP DP  RH WIND       PRES   REMARKS
BATTLE CREEK   MOCLDY    65  60  84 SW12      29.66R                  
6HR MIN TEMP:  60; 6HR MAX TEMP:  71; 6HR PCP:  0.74;                

BENTON HARBOR  FAIR      64  53  67 W17G29    29.65R                  
6HR MIN TEMP:  63; 6HR MAX TEMP:  75; 6HR PCP: TRACE;                

BIG RAPIDS     FAIR      64  57  77 W12       29.58R                  
6HR MIN TEMP:  61; 6HR MAX TEMP:  69; 6HR PCP:  0.14;                

COLDWATER      FAIR      66  61  82 S12G21    29.65S                  
6HR MIN TEMP:  64; 6HR MAX TEMP:  68;                                

FREMONT        FAIR      66  54  65 W16G25    29.60R                  
6HR MIN TEMP:  63; 6HR MAX TEMP:  71;                                

HOLLAND        FAIR      65  54  67 W17G28    29.63R                  
6HR MIN TEMP:  65; 6HR MAX TEMP:  74; 6HR PCP:  0.02;                

GRAND RAPIDS   MOCLDY    69  56  62 W15G26    29.61R                  
6HR MIN TEMP:  63; 6HR MAX TEMP:  72; 6HR PCP:  0.28;                

IONIA          FAIR      66  57  72 SW15      29.61S                  
KALAMAZOO      FAIR      67  63  87 SW7       29.65R                  
6HR MIN TEMP:  61; 6HR MAX TEMP:  72; 6HR PCP:  0.85;                

LUDINGTON      CLOUDY    45  44  97 W5        29.60R FOG              
6HR MIN TEMP:  45; 6HR MAX TEMP:  70; 6HR PCP:  0.01;                

MARSHALL       RAIN      63  63 100 W14       29.66R                  
6HR MIN TEMP:  63; 6HR MAX TEMP:  70; 6HR PCP:  0.18;                

MOUNT PLEASANT MOCLDY    67  63  87 SW9       29.57R                  
6HR MIN TEMP:  60; 6HR MAX TEMP:  69; 6HR PCP:  0.16;                

MUSKEGON       FAIR      63  50  62 W15G31    29.61R                  
6HR MIN TEMP:  57; 6HR MAX TEMP:  70; 6HR PCP:  0.01;                

SOUTH HAVEN    FAIR      64  52  64 W14G22    29.64R                  
$$
MIZ016>042-200100-
NORTHERN LOWER MICHIGAN
  
CITY           SKY/WX    TMP DP  RH WIND       PRES   REMARKS
ALPENA         LGT RAIN  45  44  97 E3        29.59F VSB 3/4          
6HR MIN TEMP:  45; 6HR MAX TEMP:  48; 6HR PCP:  0.22;                

BEAVER ISLAND  CLOUDY    44  44  99 NE14G20   29.55S                  
6HR MIN TEMP:  43; 6HR MAX TEMP:  44;                                

BELLAIRE       CLOUDY    62  58  86 W7        29.53R                  
6HR MIN TEMP:  54; 6HR MAX TEMP:  65;                                

CADILLAC       CLOUDY    63  60  91 SW9       29.55R                  
CHARLEVOIX     CLOUDY    50  49  95 E7        29.56R                  
6HR MIN TEMP:  48; 6HR MAX TEMP:  51;                                

FRANKFORT      CLOUDY    51  48  90 CALM      29.56R FOG              
GAYLORD        CLOUDY    48  48 100 E5        29.55F FOG              
6HR MIN TEMP:  47; 6HR MAX TEMP:  49; 6HR PCP:  0.25;                

GRAYLING         N/A     62  61  94 S6        29.54S                  
6HR MIN TEMP:  50; 6HR MAX TEMP:  62; 6HR PCP:  0.26;                

HARBOR SPRINGS CLOUDY    46  45  97 E13       29.54F                  
HOUGHTON LAKE  CLOUDY    62  59  90 S7        29.56S                  
6HR MIN TEMP:  55; 6HR MAX TEMP:  63; 6HR PCP:  0.35;                

MANISTEE       LGT RAIN  45  45 100 SW5       29.59R FOG              
OSCODA         CLOUDY    46  46 100 CALM      29.58F                  
6HR MIN TEMP:  45; 6HR MAX TEMP:  48; 6HR PCP:  0.28;                

PELLSTON       LGT RAIN  46  46 100 E7G17     29.57F FOG              
6HR MIN TEMP:  45; 6HR MAX TEMP:  46; 6HR PCP:  0.41;                

ROGERS CITY    LGT RAIN  43  43  98 E8        29.60F VSB 1/2          
TRAVERSE CITY  PTSUNNY   64  54  69 SW12      29.52R                  
6HR MIN TEMP:  59; 6HR MAX TEMP:  70; 6HR PCP:  0.20;                

$$
MIZ007>008-015-200100-
EASTERN UPPER MICHIGAN
  
CITY           SKY/WX    TMP DP  RH WIND       PRES   REMARKS
KINROSS        LGT RAIN  45  44  97 NE9       29.61R FOG              
6HR MIN TEMP:  45; 6HR MAX TEMP:  46; 6HR PCP:  0.35;                

MACKINAC ISLAN CLOUDY    44  44 100 E13G30    29.58S FOG              
6HR MIN TEMP:  42; 6HR MAX TEMP:  45; 6HR PCP:  0.41;                

NEWBERRY       CLOUDY    44  42  92 NE10      29.59F FOG              
6HR MIN TEMP:  43; 6HR MAX TEMP:  44; 6HR PCP:  0.22;                

S. S. MARIE    LGT RAIN  47  44  90 E7G18     29.62R                  
6HR MIN TEMP:  46; 6HR MAX TEMP:  47; 6HR PCP:  0.49;                

MUNISING         N/A     40  38  93 NE22      29.65S WCI  30          
6HR MIN TEMP:  39; 6HR MAX TEMP:  42; 6HR PCP:  0.31;                

$$
MIZ004>006-011>014-085-200100-
CENTRAL UPPER MICHIGAN
  
CITY           SKY/WX    TMP DP  RH WIND       PRES   REMARKS
MANISTIQUE     DRIZZLE   45  42  89 N14       29.57S                  
6HR MIN TEMP:  45; 6HR MAX TEMP:  46;                                

ESCANABA       LGT RAIN  43  41  93 N8G20     29.61R                  
6HR MIN TEMP:  43; 6HR MAX TEMP:  45; 6HR PCP:  0.41;                

MENOMINEE      CLOUDY    44  41  89 N10       29.63R                  
6HR MIN TEMP:  44; 6HR MAX TEMP:  47; 6HR PCP:  0.32;                

SAWYER-GWINN   LGT RAIN  39  37  93 NE23G33   29.66R VSB 0   WCI  29  
$$
MIZ001>003-009>011-084-200100-
WESTERN UPPER MICHIGAN
  
CITY           SKY/WX    TMP DP  RH WIND       PRES   REMARKS
IRON MOUNTAIN  LGT RAIN  42  38  85 N15G23    29.65R FOG              
6HR MIN TEMP:  41; 6HR MAX TEMP:  42; 6HR PCP:  0.28;                

HOUGHTON       CLOUDY    40  35  83 NE17G29   29.78S WCI  31          
6HR MIN TEMP:  39; 6HR MAX TEMP:  41; 6HR PCP:  0.07;                

COPPER HARBOR    N/A     40  36  86 NE15G28   29.80F WCI  32          
6HR MIN TEMP:  39; 6HR MAX TEMP:  40; 6HR PCP:  0.08;                

IRONWOOD       LGT RAIN  34  33  96 N9G18     29.84R WCI  27          
6HR MIN TEMP:  33; 6HR MAX TEMP:  35; 6HR PCP:  0.24;                

$$

ABBREVIATIONS USED IN REMARKS
   TC - TEMPERATURE IN CELSIUS
  WCI - WIND CHILL INDEX
   HX - HEAT INDEX
  VSB - VISIBILITY